[[{"header":{"parameterUnit":"m.s-1","parameterCategory":1,"la1":30.2991,"la2":30.254,"lo1":-89.0895,"lo2":-89.0444,"dy":0.0017,"dx":0.0017,"nx":28,"ny":28,"refTime":"2025-08-06T03:00:00:Z","depth":0,"parameterNumber":2,"parameterNumberName":"U-component_of_WINDS"},"data":[0,0,0,0,0,0,0,0,0,0,0,0,0,0,0,0,0,0,0,0,0,0,0,0,0,0,0,0,0,0,0,0,0,0,0,0,0,0,0,0,0,0,0,0,0,0,0,0,0,0,0,0,0,0,0,0,0,0,-2.0417,-2.0417,0,-2.0419,-2.0419,-2.0419,-2.0329,-2.0326,-2.0324,-2.0322,-2.0326,-2.0328,-2.0331,0,0,0,0,0,0,0,0,0,0,0,0,0,-2.0339,-2.0341,-2.0417,-2.0417,-2.0417,-2.0419,-2.0419,-2.0419,-2.0329,-2.0326,-2.0323,-2.0321,-2.0325,-2.0328,-2.0331,0,0,0,0,0,0,0,0,0,0,0,0,0,-2.036,-2.0341,-2.0417,-2.0373,-2.0369,-2.0419,-2.0419,-2.0419,-2.033,-2.0326,-2.0323,-2.0319,-2.0324,-2.0328,-2.0331,-2.0425,0,0,-2.0342,-2.0343,0,0,0,0,0,0,0,0,-2.0359,-2.0363,-2.0379,-2.0376,-2.0371,-2.037,-2.0392,-2.0421,-2.0331,-2.0345,-2.0322,-2.0317,-2.0344,-2.0345,-2.0354,-2.0425,-2.0425,-2.0342,-2.0344,-2.0346,-2.0347,0,0,0,0,0,0,0,-2.0358,-2.0362,-2.0418,-2.038,-2.0375,-2.0353,-2.0352,-2.0397,-2.0364,-2.0343,-2.0337,-2.0338,-2.0341,-2.035,-2.0353,-2.0425,-2.0342,-2.0345,-2.0347,-2.0349,-2.0571,-2.0574,0,0,0,0,0,0,-2.0362,-2.0362,-2.0418,-2.0418,-2.0356,-2.0358,-2.0356,-2.0374,-2.0364,-2.0358,-2.0341,-2.0334,-2.0346,-2.0349,-2.0353,-2.0459,-2.0346,-2.0349,-2.0351,-2.0567,-2.0571,-2.0576,0,0,0,0,0,0,-2.0361,-2.0368,-2.0418,-2.0388,-2.0393,-2.0363,-2.0383,-2.0376,-2.0385,-2.0362,-2.0356,-2.0357,-2.0343,-2.0348,-2.0407,-2.0458,-2.0351,-2.0354,-2.0562,-2.0568,-2.0574,-2.0675,0,0,0,0,0,0,-2.0359,-2.0368,-2.0403,-2.0389,-2.0395,-2.0472,-2.0386,-2.0379,-2.0391,-2.0382,-2.0375,-2.037,-2.0341,-2.0402,-2.041,-2.0461,-2.0357,-2.0558,-2.0565,-2.0572,-2.0667,-2.0684,-2.0698,0,0,0,0,0,-2.0356,-2.0433,-2.0405,-2.0412,-2.0438,-2.0475,-2.0478,-2.0441,-2.0396,-2.0431,-2.0415,-2.0371,-2.0452,-2.0409,-2.0417,-2.047,-2.0554,-2.0563,-2.0571,-2.066,-2.068,-2.0697,0,0,0,0,0,0,-2.0455,-2.043,-2.0399,-2.0474,-2.0477,-2.0459,-2.0502,-2.0464,-2.0481,-2.0472,-2.0427,-2.0426,-2.0492,-2.0487,-2.044,-2.0559,-2.0495,-2.0506,-2.056,-2.0579,-2.0594,-2.0593,-2.036,0,0,0,0,0,-2.0485,-2.0516,-2.0493,-2.0561,-2.0564,-2.0533,-2.0548,-2.0519,-2.0521,-2.0523,-2.0512,-2.0516,-2.0542,-2.056,-2.0583,-2.0666,-2.0662,-2.0707,-2.0722,-2.0735,-2.0744,-2.0786,-2.0805,-2.0604,-2.0603,-2.0603,0,0,-2.0548,-2.0538,-2.0561,-2.058,-2.0579,-2.0613,-2.0535,-2.0574,-2.0599,-2.0529,-2.0583,-2.0575,-2.0577,-2.0647,-2.0678,-2.0645,-2.0799,-2.0746,-2.0756,-2.0758,-2.0796,-2.0815,-2.0832,-2.0609,-2.0608,-2.0607,0,0,-2.0679,-2.0675,-2.073,-2.073,-2.0729,-2.0708,-2.0721,-2.0709,-2.0701,-2.0754,-2.0701,-2.073,-2.0777,-2.0779,-2.0787,-2.0917,-2.0876,-2.0926,-2.1006,-2.1047,-2.1063,-2.1077,-2.1121,-2.1138,-2.0936,-2.0936,-2.0937,0,-2.0757,-2.0805,-2.0763,-2.0805,-2.0815,-2.0752,-2.0806,-2.0809,-2.0816,-2.0825,-2.0788,-2.0843,-2.084,-2.0909,-2.0941,-2.095,-2.0963,-2.0926,-2.1064,-2.1077,-2.109,-2.1132,-2.1149,-2.0942,-2.0942,-2.0941,-2.094,0,-2.09,-2.0934,-2.0979,-2.0985,-2.0999,-2.1048,-2.1014,-2.1034,-2.1004,-2.0987,-2.1041,-2.1035,-2.1055,-2.1069,-2.1042,-2.1135,-2.1114,-2.1072,-2.1006,-2.1115,-2.1154,-2.117,-2.0951,-2.0949,-2.0947,-2.0945,0,0,-2.1094,-2.1075,-2.1092,-2.1093,-2.1086,-2.1112,-2.1157,-2.1174,-2.1192,-2.1199,-2.1235,-2.1275,-2.1235,-2.1244,-2.1215,-2.1252,-2.1353,-2.1204,-2.1203,-2.123,-2.1453,-2.1483,-2.1503,-2.1326,-2.1329,-2.1331,-2.1452,0,-2.1219,-2.1294,-2.1257,-2.1336,-2.1366,-2.1306,-2.1345,-2.1345,-2.133,-2.1354,-2.1338,-2.1366,-2.1312,-2.1316,-2.1349,-2.1334,-2.1397,-2.1325,-2.1359,-2.136,-2.1358,-2.1523,-2.1556,-2.167,-2.1467,-2.1469,-2.1471,0,-2.1375,-2.1386,-2.1468,-2.1453,-2.1465,-2.1501,-2.1512,-2.1536,-2.1535,-2.1521,-2.153,-2.1493,-2.1536,-2.1472,-2.1531,-2.1482,-2.1494,-2.1489,-2.1492,-2.1493,-2.1421,-2.1526,-2.1706,-2.1722,-2.1495,-2.1493,-2.1492,0,-2.1506,-2.1541,-2.1594,-2.1597,-2.1582,-2.1608,-2.1604,-2.1599,-2.1611,-2.1622,-2.1629,-2.1647,-2.1656,-2.167,-2.1638,-2.1594,-2.17,-2.1634,-2.1689,-2.169,-2.1713,-2.1712,-2.1895,-2.1725,-2.1724,-2.1724,-2.1724,0,-2.1648,-2.17,-2.1652,-2.1684,-2.174,-2.1698,-2.1754,-2.1743,-2.1739,-2.1768,-2.1719,-2.1748,-2.1705,-2.1729,-2.1705,-2.1756,-2.1761,-2.1751,-2.1744,-2.1754,-2.1755,-2.176,-2.1751,-2.1728,-2.1727,-2.1727,-2.1726,0,-2.1803,-2.1773,-2.1825,-2.1806,-2.1803,-2.1845,-2.1828,-2.1858,-2.1838,-2.1876,-2.1882,-2.1853,-2.1879,-2.1849,-2.1874,-2.1857,-2.1925,-2.1908,-2.1925,-2.1919,-2.1976,-2.197,-2.2167,-2.219,-2.2007,-2.2008,-2.201,0,-2.1895,-2.1933,-2.1917,-2.1932,-2.193,-2.1955,-2.1966,-2.1926,-2.194,-2.1941,-2.197,-2.1991,-2.2006,-2.2051,-2.2032,-2.205,-2.2031,-2.2099,-2.2033,-2.2042,-2.2029,-2.2026,-2.2029,-2.2111,-2.2114,-2.2115,-2.2117,0,-2.2061,-2.2044,-2.2061,-2.2073,-2.2088,-2.2096,-2.2101,-2.2116,-2.2074,-2.2093,-2.2117,-2.2129,-2.2152,-2.2174,-2.2186,-2.2182,-2.2142,-2.2138,-2.2151,-2.2161,-2.2169,-2.2163,-2.1959,-2.2133,-2.2131,-2.213,-2.2129,-2.2129,-2.2186,-2.2216,-2.2208,-2.2229,-2.2228,-2.2232,-2.2258,-2.2241,-2.2261,-2.2275,-2.2251,-2.2282,-2.2279,-2.2291,-2.2291,-2.2315,-2.2286,-2.2306,-2.231,-2.2315,-2.2323,-2.2167,-2.2317,-2.2317,-2.2316,-2.2316,-2.2315,0,-2.2347,-2.2339,-2.2358,-2.2365,-2.2381,-2.2341,-2.2344,-2.236,-2.2387,-2.2387,-2.2402,-2.243,-2.245,-2.2432,-2.2449,-2.2471,-2.2454,-2.2477,-2.2474,-2.2473,-2.2349,-2.2334,-2.2491,-2.2491,-2.2491,-2.2491,-2.2491,-2.2491,-2.2433,-2.248,-2.2462,-2.2508,-2.25,-2.2528,-2.2532,-2.2536,-2.2535,-2.2568,-2.2584,-2.2572,-2.2564,-2.258,-2.2596,-2.2591,-2.2598,-2.2628,-2.2616,-2.25,-2.2482,-2.2466,-2.2452,-2.263,-2.2631,-2.2737,-2.2738,-2.2739]},{"header":{"parameterUnit":"m.s-1","parameterCategory":1,"la1":30.2991,"la2":30.254,"lo1":-89.0895,"lo2":-89.0444,"dy":0.0017,"dx":0.0017,"nx":28,"ny":28,"refTime":"2025-08-06T03:00:00:Z","depth":0,"parameterNumber":3,"parameterNumberName":"V-component_of_WINDS"},"data":[0,0,0,0,0,0,0,0,0,0,0,0,0,0,0,0,0,0,0,0,0,0,0,0,0,0,0,0,0,0,0,0,0,0,0,0,0,0,0,0,0,0,0,0,0,0,0,0,0,0,0,0,0,0,0,0,0,0,-1.7255,-1.7256,0,-1.7304,-1.7304,-1.7305,-1.7346,-1.7346,-1.7347,-1.7347,-1.7395,-1.7395,-1.7396,0,0,0,0,0,0,0,0,0,0,0,0,0,-1.7196,-1.7197,-1.7255,-1.7256,-1.7257,-1.7304,-1.7304,-1.7305,-1.7346,-1.7346,-1.7347,-1.7347,-1.7394,-1.7395,-1.7396,0,0,0,0,0,0,0,0,0,0,0,0,0,-1.723,-1.7197,-1.7255,-1.7283,-1.7286,-1.7303,-1.7304,-1.7305,-1.7346,-1.7346,-1.7347,-1.7348,-1.7394,-1.7395,-1.7396,-1.739,0,0,-1.74,-1.7401,0,0,0,0,0,0,0,0,-1.7228,-1.7233,-1.7278,-1.7281,-1.7284,-1.732,-1.7301,-1.7334,-1.7346,-1.7323,-1.7347,-1.7348,-1.7369,-1.7372,-1.738,-1.7392,-1.7395,-1.74,-1.7401,-1.7402,-1.7402,0,0,0,0,0,0,0,-1.7226,-1.7231,-1.7274,-1.7279,-1.7282,-1.7292,-1.7297,-1.7307,-1.7341,-1.7325,-1.7328,-1.7333,-1.7371,-1.7378,-1.7381,-1.7395,-1.74,-1.7401,-1.7402,-1.7403,-1.7403,-1.7402,0,0,0,0,0,0,-1.722,-1.7228,-1.7273,-1.7276,-1.7257,-1.7292,-1.7299,-1.7307,-1.7341,-1.7347,-1.7333,-1.7335,-1.7376,-1.738,-1.7383,-1.7376,-1.7402,-1.7403,-1.7404,-1.7403,-1.7403,-1.7402,0,0,0,0,0,0,-1.7218,-1.7223,-1.7271,-1.7253,-1.726,-1.7292,-1.7302,-1.7308,-1.7316,-1.7347,-1.7353,-1.7334,-1.7377,-1.7381,-1.7388,-1.7378,-1.7403,-1.7405,-1.7404,-1.7403,-1.7402,-1.7363,0,0,0,0,0,0,-1.7216,-1.7222,-1.7221,-1.7253,-1.7261,-1.7276,-1.7302,-1.7308,-1.7318,-1.7322,-1.735,-1.7356,-1.7378,-1.7386,-1.7389,-1.738,-1.7405,-1.7405,-1.7404,-1.7402,-1.7365,-1.7361,-1.7357,0,0,0,0,0,-1.7214,-1.7209,-1.7221,-1.7226,-1.726,-1.7275,-1.7279,-1.7305,-1.7317,-1.7315,-1.7335,-1.7355,-1.7379,-1.7386,-1.739,-1.7382,-1.7406,-1.7404,-1.7403,-1.7367,-1.7362,-1.7357,0,0,0,0,0,0,-1.7175,-1.7213,-1.7227,-1.7232,-1.725,-1.7282,-1.7281,-1.7299,-1.7313,-1.7316,-1.7347,-1.7353,-1.7355,-1.737,-1.7376,-1.7376,-1.7395,-1.7394,-1.7367,-1.7362,-1.7358,-1.7353,-1.7407,0,0,0,0,0,-1.7167,-1.7177,-1.721,-1.721,-1.7219,-1.7248,-1.7256,-1.7274,-1.7293,-1.7301,-1.7321,-1.7339,-1.735,-1.7357,-1.737,-1.7368,-1.7374,-1.7364,-1.736,-1.7356,-1.7355,-1.7352,-1.7348,-1.7396,-1.7396,-1.7396,0,0,-1.715,-1.7172,-1.7177,-1.7203,-1.7219,-1.7227,-1.7254,-1.7262,-1.7268,-1.7302,-1.7309,-1.7324,-1.7346,-1.7348,-1.735,-1.736,-1.7343,-1.7354,-1.7351,-1.7351,-1.735,-1.7345,-1.7341,-1.7395,-1.7395,-1.7395,0,0,-1.7124,-1.7142,-1.7144,-1.7159,-1.7183,-1.7203,-1.7203,-1.7232,-1.7243,-1.7251,-1.7276,-1.7283,-1.7303,-1.7316,-1.7326,-1.7302,-1.732,-1.7306,-1.7283,-1.728,-1.7276,-1.7273,-1.7262,-1.7259,-1.7304,-1.7304,-1.7304,0,-1.71,-1.7114,-1.7143,-1.7149,-1.7158,-1.719,-1.719,-1.7204,-1.723,-1.7235,-1.7247,-1.7271,-1.7288,-1.7292,-1.7286,-1.7293,-1.7293,-1.7302,-1.7275,-1.7272,-1.7269,-1.7259,-1.7255,-1.7302,-1.7302,-1.7302,-1.7303,0,-1.7082,-1.7092,-1.709,-1.7114,-1.7124,-1.7128,-1.7155,-1.7162,-1.7178,-1.7196,-1.7202,-1.7223,-1.7239,-1.7242,-1.7259,-1.7248,-1.7253,-1.7269,-1.7288,-1.7262,-1.7253,-1.725,-1.7299,-1.73,-1.73,-1.7301,0,0,-1.7033,-1.7072,-1.707,-1.7081,-1.7109,-1.7116,-1.712,-1.7136,-1.714,-1.7157,-1.7159,-1.7175,-1.7189,-1.72,-1.7218,-1.7216,-1.7193,-1.7232,-1.7233,-1.7222,-1.718,-1.7166,-1.7161,-1.7206,-1.7205,-1.7205,-1.7177,0,-1.7009,-1.7018,-1.7043,-1.7044,-1.7052,-1.7081,-1.7084,-1.7101,-1.7117,-1.7125,-1.7143,-1.7152,-1.7172,-1.7178,-1.7178,-1.7196,-1.7185,-1.7199,-1.7207,-1.7207,-1.7198,-1.7157,-1.7143,-1.7115,-1.7174,-1.7173,-1.7173,0,-1.6983,-1.6997,-1.6999,-1.7024,-1.7028,-1.7031,-1.7046,-1.7054,-1.7073,-1.7085,-1.7096,-1.7116,-1.712,-1.7139,-1.7144,-1.7153,-1.7158,-1.7167,-1.7167,-1.7167,-1.7187,-1.7153,-1.7107,-1.7102,-1.7168,-1.7169,-1.7169,0,-1.6943,-1.6963,-1.6966,-1.6975,-1.7005,-1.7006,-1.7018,-1.7038,-1.7045,-1.7059,-1.7063,-1.7077,-1.7084,-1.7093,-1.7116,-1.7128,-1.7117,-1.7139,-1.7125,-1.7125,-1.712,-1.712,-1.7072,-1.7127,-1.7127,-1.7127,-1.7127,0,-1.6913,-1.6912,-1.6949,-1.695,-1.6949,-1.6978,-1.6976,-1.6991,-1.7008,-1.7012,-1.7039,-1.7042,-1.7073,-1.7079,-1.7097,-1.7096,-1.71,-1.7108,-1.7113,-1.7105,-1.7103,-1.7107,-1.7108,-1.7126,-1.7127,-1.7127,-1.7127,0,-1.6868,-1.6893,-1.6898,-1.6926,-1.6933,-1.6931,-1.6954,-1.6956,-1.6974,-1.6978,-1.6981,-1.7008,-1.7017,-1.7041,-1.7056,-1.7067,-1.7061,-1.7071,-1.7054,-1.7057,-1.7041,-1.7041,-1.6992,-1.6985,-1.7047,-1.7046,-1.7046,0,-1.6847,-1.6847,-1.6874,-1.6879,-1.689,-1.6897,-1.6905,-1.6932,-1.6938,-1.6958,-1.6957,-1.6968,-1.6977,-1.6989,-1.7009,-1.702,-1.7029,-1.7011,-1.7031,-1.7022,-1.7025,-1.7024,-1.7023,-1.7006,-1.7005,-1.7004,-1.7004,0,-1.6804,-1.6816,-1.6826,-1.6839,-1.6846,-1.6858,-1.6871,-1.6873,-1.6904,-1.6909,-1.6918,-1.6925,-1.694,-1.6949,-1.6962,-1.6974,-1.6993,-1.6998,-1.6995,-1.6985,-1.6974,-1.6977,-1.704,-1.6998,-1.6999,-1.6999,-1.7,-1.7,-1.6769,-1.6769,-1.6788,-1.6797,-1.681,-1.6821,-1.6823,-1.6841,-1.6849,-1.6862,-1.6878,-1.6884,-1.6901,-1.6921,-1.6932,-1.6936,-1.6946,-1.6943,-1.6941,-1.6939,-1.6934,-1.6976,-1.6939,-1.6939,-1.6939,-1.6939,-1.694,0,-1.6726,-1.6739,-1.6747,-1.6764,-1.6771,-1.6789,-1.6804,-1.6808,-1.6813,-1.6827,-1.6836,-1.6844,-1.6853,-1.6874,-1.6884,-1.6883,-1.6892,-1.6884,-1.6883,-1.6885,-1.6926,-1.6926,-1.6877,-1.6877,-1.6877,-1.6877,-1.6877,-1.6877,-1.6704,-1.6704,-1.6718,-1.6724,-1.6737,-1.6743,-1.675,-1.676,-1.6771,-1.6779,-1.6786,-1.68,-1.6816,-1.6828,-1.6836,-1.6841,-1.6843,-1.6832,-1.684,-1.6877,-1.6883,-1.6889,-1.6889,-1.6833,-1.6833,-1.6799,-1.6799,-1.6799]}]]